User: anonymous   Login
Location: Goheenville
(40.9070°N, 79.3720°W)
Time: 07:42:50
(UTC-04:00)
Language:

Cosmos 1727 Rocket - Orbit

View from above orbital plane
View from above orbital plane
View from above satellite
View from above satellite

Ground track
Ground track

The orbit data is extracted from the following two-line orbital elements,

1 16511U 86008B   16240.15642647  .00000085  00000-0  72108-4 0  9999
2 16511  82.9415  77.9782 0024840  27.0235 112.0981 13.75810489535845
Epoch (UTC): 27 August 2016 03:45:15
Eccentricity: 0.0024840
inclination: 82.9415°
perigee height: 960 km
apogee height: 997 km
right ascension of ascending node: 77.9782°
argument of perigee: 27.0235°
revolutions per day: 13.75810489
mean anomaly at epoch: 112.0981°
orbit number at epoch: 53584

The dashed part of the orbit path shows where the satellite is in the earth's shadow,  

DLR